When you browse on this site, cookies collect data to enhance your experience and personalize the content and advertising you see.
Visit our Privacy Policy to learn more. By continuing to use the site, you agree to this use of cookies and data.
  • En España
  • Lista de países
  • Para 7 días
  • Temperatura del agua
  • El tiempo en el mapa
  • Informadores
  • user-avatar
    Iniciar sesión

    Tiempo cada hora Opole

    Hoy, 7 Junio, Domingo

    Tiempo Temperatura Precipitaciones Viento Presión Humedad
    00:00 +15°C° 0.1 mm 2 mps 741 mmHg 93%
    01:00 +15°C° 0 mm 1 mps 741 mmHg 92%
    02:00 +15°C° 0.4 mm 1 mps 741 mmHg 93%
    03:00 +15°C° 0.4 mm 1 mps 741 mmHg 93%
    04:00 +15°C° 0.4 mm 1 mps 741 mmHg 94%
    05:00 +16°C° 0.1 mm 1 mps 741 mmHg 91%
    06:00 +18°C° 0.1 mm 1 mps 741 mmHg 89%
    07:00 +19°C° 0.1 mm 2 mps 741 mmHg 86%
    08:00 +21°C° 0.5 mm 1 mps 741 mmHg 83%
    09:00 +22°C° 0.5 mm 1 mps 740 mmHg 80%
    10:00 +23°C° 0.5 mm 1 mps 740 mmHg 77%
    11:00 +23°C° 1.5 mm 1 mps 740 mmHg 77%
    12:00 +23°C° 1.5 mm 2 mps 740 mmHg 78%
    13:00 +22°C° 1.5 mm 3 mps 740 mmHg 79%
    14:00 +22°C° 1 mm 3 mps 740 mmHg 80%
    15:00 +23°C° 1 mm 2 mps 739 mmHg 80%
    16:00 +23°C° 1 mm 2 mps 739 mmHg 81%
    17:00 +21°C° 0.7 mm 2 mps 739 mmHg 84%
    18:00 +20°C° 0.7 mm 2 mps 739 mmHg 86%
    19:00 +20°C° 0.7 mm 2 mps 739 mmHg 89%
    20:00 +19°C° 0.3 mm 2 mps 739 mmHg 90%
    21:00 +18°C° 0.3 mm 2 mps 739 mmHg 92%
    22:00 +17°C° 0.3 mm 2 mps 739 mmHg 93%
    23:00 +16°C° 0.3 mm 2 mps 739 mmHg 95%

    Mañana, 8 Junio, Lunes

    Tiempo Temperatura Precipitaciones Viento Presión Humedad
    00:00 +16°C° 0.3 mm 3 mps 739 mmHg 96%
    01:00 +14°C° 0.3 mm 3 mps 739 mmHg 97%
    02:00 +14°C° 0.5 mm 4 mps 739 mmHg 97%
    03:00 +14°C° 0.5 mm 4 mps 739 mmHg 97%
    04:00 +14°C° 0.5 mm 5 mps 739 mmHg 97%
    05:00 +13°C° 0.1 mm 5 mps 739 mmHg 96%
    06:00 +13°C° 0.1 mm 5 mps 740 mmHg 96%
    07:00 +12°C° 0.1 mm 5 mps 740 mmHg 95%
    08:00 +12°C° 0.1 mm 5 mps 741 mmHg 94%
    09:00 +13°C° 0.1 mm 5 mps 741 mmHg 94%
    10:00 +13°C° 0.1 mm 5 mps 742 mmHg 93%
    11:00 +13°C° 0.1 mm 5 mps 742 mmHg 93%
    12:00 +13°C° 0.1 mm 5 mps 742 mmHg 92%
    13:00 +13°C° 0.1 mm 5 mps 743 mmHg 92%
    14:00 +13°C° 0 mm 5 mps 743 mmHg 90%
    15:00 +13°C° 0 mm 5 mps 743 mmHg 87%
    16:00 +14°C° 0 mm 5 mps 743 mmHg 85%
    17:00 +14°C° 0 mm 4 mps 743 mmHg 86%
    18:00 +13°C° 0 mm 3 mps 743 mmHg 87%
    19:00 +13°C° 0 mm 3 mps 743 mmHg 88%
    20:00 +13°C° 0 mm 3 mps 744 mmHg 89%
    21:00 +13°C° 0 mm 2 mps 744 mmHg 90%
    22:00 +13°C° 0 mm 2 mps 744 mmHg 91%
    23:00 +13°C° 0 mm 2 mps 744 mmHg 92%

    Pasado mañana, 9 Junio, Martes

    Tiempo Temperatura Precipitaciones Viento Presión Humedad
    00:00 +12°C° 0 mm 2 mps 744 mmHg 93%
    01:00 +11°C° 0 mm 3 mps 744 mmHg 94%
    02:00 +12°C° 0 mm 2 mps 744 mmHg 94%
    03:00 +12°C° 0 mm 2 mps 744 mmHg 93%
    04:00 +12°C° 0 mm 2 mps 745 mmHg 92%
    05:00 +12°C° 0 mm 2 mps 745 mmHg 92%
    06:00 +12°C° 0 mm 2 mps 745 mmHg 91%
    07:00 +13°C° 0 mm 2 mps 745 mmHg 90%
    08:00 +13°C° 0 mm 2 mps 745 mmHg 88%
    09:00 +14°C° 0 mm 2 mps 745 mmHg 87%
    10:00 +13°C° 0 mm 3 mps 746 mmHg 85%
    11:00 +15°C° 0 mm 2 mps 745 mmHg 84%
    12:00 +15°C° 0 mm 2 mps 745 mmHg 83%
    13:00 +16°C° 0 mm 2 mps 745 mmHg 82%
    14:00 +16°C° 0 mm 2 mps 745 mmHg 82%
    15:00 +17°C° 0 mm 2 mps 745 mmHg 82%
    16:00 +17°C° 0 mm 2 mps 745 mmHg 82%
    17:00 +17°C° 0 mm 2 mps 745 mmHg 84%
    18:00 +16°C° 0 mm 2 mps 745 mmHg 87%
    19:00 +16°C° 0 mm 1 mps 745 mmHg 89%
    20:00 +16°C° 0 mm 1 mps 745 mmHg 90%
    21:00 +15°C° 0 mm 2 mps 745 mmHg 91%
    22:00 +15°C° 0 mm 2 mps 746 mmHg 93%
    23:00 +15°C° 0 mm 2 mps 745 mmHg 93%

    10 Junio, Miércoles

    Tiempo Temperatura Precipitaciones Viento Presión Humedad
    00:00 +15°C° 0 mm 2 mps 745 mmHg 94%
    01:00 +14°C° 0 mm 2 mps 745 mmHg 94%
    02:00 +14°C° 0 mm 2 mps 745 mmHg 95%
    03:00 +14°C° 0 mm 2 mps 745 mmHg 95%
    04:00 +14°C° 0 mm 2 mps 745 mmHg 95%
    05:00 +14°C° 0 mm 2 mps 745 mmHg 93%
    06:00 +14°C° 0 mm 2 mps 744 mmHg 92%
    07:00 +15°C° 0 mm 2 mps 744 mmHg 90%
    08:00 +16°C° 0 mm 2 mps 744 mmHg 85%
    09:00 +17°C° 0 mm 3 mps 744 mmHg 80%
    10:00 +18°C° 0 mm 3 mps 744 mmHg 75%
    11:00 +18°C° 0 mm 3 mps 744 mmHg 76%
    12:00 +18°C° 0 mm 3 mps 744 mmHg 76%
    13:00 +18°C° 0 mm 3 mps 744 mmHg 76%
    14:00 +18°C° 0 mm 3 mps 743 mmHg 77%
    15:00 +18°C° 0 mm 3 mps 743 mmHg 78%
    16:00 +18°C° 0 mm 3 mps 743 mmHg 79%
    17:00 +17°C° 0 mm 3 mps 743 mmHg 82%
    18:00 +17°C° 0 mm 3 mps 743 mmHg 85%
    19:00 +16°C° 0 mm 2 mps 743 mmHg 88%
    20:00 +16°C° 0 mm 2 mps 743 mmHg 91%
    21:00 +15°C° 0 mm 2 mps 743 mmHg 93%
    22:00 +15°C° 0 mm 2 mps 743 mmHg 95%
    23:00 +14°C° 0 mm 2 mps 743 mmHg 96%

    11 Junio, Jueves

    Tiempo Temperatura Precipitaciones Viento Presión Humedad
    00:00 +14°C° 0 mm 2 mps 743 mmHg 96%
    01:00 +14°C° 0 mm 1 mps 743 mmHg 97%
    02:00 +14°C° 0 mm 1 mps 742 mmHg 97%
    03:00 +14°C° 0 mm 1 mps 742 mmHg 97%
    04:00 +14°C° 0 mm 2 mps 742 mmHg 97%
    05:00 +15°C° 0 mm 2 mps 742 mmHg 96%
    06:00 +15°C° 0 mm 2 mps 742 mmHg 95%
    07:00 +16°C° 0 mm 2 mps 742 mmHg 93%
    08:00 +17°C° 0 mm 2 mps 742 mmHg 90%
    09:00 +17°C° 0 mm 2 mps 742 mmHg 87%
    10:00 +18°C° 0 mm 2 mps 742 mmHg 84%
    11:00 +20°C° 0 mm 2 mps 742 mmHg 80%
    12:00 +21°C° 0 mm 2 mps 742 mmHg 75%
    13:00 +23°C° 0 mm 2 mps 741 mmHg 70%
    14:00 +22°C° 0.4 mm 3 mps 741 mmHg 72%
    15:00 +22°C° 0.4 mm 3 mps 741 mmHg 74%
    16:00 +22°C° 0.4 mm 3 mps 741 mmHg 76%
    17:00 +21°C° 0.4 mm 3 mps 741 mmHg 80%
    18:00 +21°C° 0.4 mm 3 mps 741 mmHg 84%
    19:00 +20°C° 0.4 mm 2 mps 741 mmHg 88%
    20:00 +19°C° 0.1 mm 2 mps 741 mmHg 90%
    21:00 +18°C° 0.1 mm 2 mps 741 mmHg 91%
    22:00 +17°C° 0.1 mm 2 mps 741 mmHg 93%
    23:00 +17°C° 0 mm 2 mps 741 mmHg 94%

    12 Junio, Viernes

    Tiempo Temperatura Precipitaciones Viento Presión Humedad
    00:00 +17°C° 0 mm 2 mps 740 mmHg 95%
    01:00 +17°C° 0 mm 2 mps 740 mmHg 96%
    02:00 +16°C° 0.2 mm 2 mps 740 mmHg 96%
    03:00 +16°C° 0.2 mm 2 mps 740 mmHg 97%
    04:00 +16°C° 0.2 mm 2 mps 740 mmHg 98%
    05:00 +17°C° 0.1 mm 2 mps 740 mmHg 96%
    06:00 +18°C° 0.1 mm 2 mps 740 mmHg 95%
    07:00 +19°C° 0.1 mm 2 mps 741 mmHg 94%
    08:00 +19°C° 0 mm 2 mps 741 mmHg 92%
    09:00 +20°C° 0 mm 2 mps 740 mmHg 89%
    10:00 +21°C° 0 mm 2 mps 740 mmHg 87%
    11:00 +23°C° 0.1 mm 2 mps 740 mmHg 83%
    12:00 +24°C° 0.1 mm 2 mps 740 mmHg 79%
    13:00 +25°C° 0.1 mm 2 mps 740 mmHg 76%
    14:00 +25°C° 0.4 mm 1 mps 740 mmHg 73%
    15:00 +26°C° 0.4 mm 1 mps 740 mmHg 71%
    16:00 +27°C° 0.4 mm 1 mps 739 mmHg 68%
    17:00 +26°C° 0.2 mm 1 mps 739 mmHg 73%
    18:00 +25°C° 0.2 mm 1 mps 739 mmHg 77%
    19:00 +24°C° 0.2 mm 2 mps 739 mmHg 82%
    20:00 +23°C° 0.3 mm 1 mps 739 mmHg 84%
    21:00 +22°C° 0.3 mm 1 mps 739 mmHg 87%
    22:00 +21°C° 0.3 mm 1 mps 739 mmHg 89%
    23:00 +20°C° 0 mm 1 mps 739 mmHg 90%
    Mostrar más